FALCON 9 R/B (43612 NORAD) Tracking and Keplerian Element Data

This shows tracking and keplerian element data for the satellite.

Feedback or suggestion? Click here.




ElementValue
Catalog43612
NameFALCON 9 R/B
Epoch Orbit128
Epoch Day281.80341894
Epoch Year2018
RAAN229.2003
Inclination27.015
Eccentricity0.5735194
Argument of Perigee215.0942
Mean Anonmoly88.3821
Mean Motion4.48700757
Decay Rate2.675E-05
L11 43612U 18069B 18281.80341894 .00002675 00000-0 22156-3 0 9996
L22 43612 27.0150 229.2003 5735194 215.0942 88.3821 4.48700757 1281

Live tracking and technical data element details for FALCON 9 R/B (NORAD 43612). FALCON 9 R/B can be tracked NOW for your location showing map with azimuth and elevation plus other details from your city location.

Track the satellite on the map from your city or location and see movement details for azimuth, elevation, latitude, longitude, range, height, and movement on the map or in text.







IsCatalogInMostPopularTable: catalog: 43612, numindb: 32
Update: records affected: 1



GetName: 43612 FALCON 9 R/B

Hit Count: updated at: Tue, 13 Nov 2018 07:45:03 GMT